{"data":{"norad_id":39030,"intl_designator":"2012-073A","name":"GOKTURK 2","alt_names":[],"object_type":"PAYLOAD","status":"ACTIVE","operator":null,"country":"TURK","launch_date":"2012-12-18","launch_site_code":"JSC","launch_vehicle":null,"mission":null,"orbit_class":"UNKNOWN","rcs_meters":1.6464,"size_class":null,"mass_kg":null,"dimensions":null,"purposes":["earth_obs"],"wikipedia_slug":null,"has_3d_model":false,"image_url":null,"decayed_at":null,"tle_current":{"epoch":"2026-05-25T03:50:07.037952Z","epoch_age_seconds":71723,"freshness":"FRESH","line1":"1 39030U 12073A   26145.15980368 -.00000022  00000+0  36810-5 0  9993","line2":"2 39030  97.6838 343.7446 0002144  75.7081 284.4367 14.75514474721116","mean_motion":14.75514474,"eccentricity":0.0002144,"inclination_deg":97.6838,"raan_deg":343.7446,"arg_perigee_deg":75.7081,"mean_anomaly_deg":284.4367,"bstar":3.681e-6,"rev_number":72111,"period_min":97.59307857525,"perigee_km":642.01317363096,"apogee_km":645.02405955936,"semimajor_km":7021.6556165952,"source":"CELESTRAK","updated_at":"2026-05-25T13:38:12.781349Z"}}}